Cook, MN

1:30 PM CDT on May 27, 2017 (GMT -0500)
Cook Municipal

Weather History for KCQM - April, 2013

Change the Weather History Date:

Tuesday, April 2, 2013

  Actual Average Record
Temperature  
Mean Temperature 20 °F -  
Max Temperature 32 °F 41 °F 93 °F (1999)
Min Temperature 8 °F 21 °F 1 °F (2014)
Degree Days  
Heating Degree Days 45    
Moisture  
Dew Point 5 °F    
Average Humidity 56    
Maximum Humidity 92    
Minimum Humidity 25    
Precipitation  
Precipitation 0.00 in - - ()
Sea Level Pressure  
Sea Level Pressure 30.23 in    
Wind  
Wind Speed 6 mph (WNW)    
Max Wind Speed 15 mph    
Max Gust Speed 20 mph    
Visibility 10 miles    
Events      
Averages and records for this station are not official NWS values.
T = Trace of Precipitation, MM = Missing Value Source: NWS Daily Summary

Daily Weather History Graph

Daily Weather History Graph

Search for Another Location

Airport or City:

Trip Planner

Search our weather history database for the weather conditions in past years. The results will help you decide how hot, cold, wet, or windy it might be!

Date:

Astronomy

Apr. 02, 2013 Rise Set
Actual Time 6:46 AM CDT 7:42 PM CDT
Civil Twilight 6:15 AM CDT 8:14 PM CDT
Nautical Twilight 5:37 AM CDT 8:51 PM CDT
Astronomical Twilight 4:58 AM CDT 9:31 PM CDT
Moon 2:05 AM CDT (4/2) 11:20 AM CDT (4/2)
Length of Visible Light 13h 58m
Length of Day
12h 55m
Waning Gibbous, 55% of the Moon is Illuminated
Apr 2
Waning Gibbous
Apr 2
Last Quarter
Apr 10
New
Apr 18
First Quarter
Apr 25
Full

Hourly Weather History & Observations

Time (CDT) Temp. Windchill Dew Point Humidity Pressure Visibility Wind Dir Wind Speed Gust Speed Precip Events Conditions
12:17 AM 19.4 °F 8.6 °F 10.4 °F 68% 30.14 in 10.0 mi West 9.2 mph - N/A   Clear
12:36 AM 19.4 °F 9.5 °F 10.4 °F 68% 30.14 in 10.0 mi West 8.1 mph - N/A   Clear
1:16 AM 17.6 °F 7.3 °F 10.4 °F 73% 30.14 in 10.0 mi West 8.1 mph - N/A   Clear
1:36 AM 17.6 °F 7.3 °F 10.4 °F 73% 30.15 in 10.0 mi West 8.1 mph - N/A   Clear
1:56 AM 15.8 °F 5.1 °F 8.6 °F 73% 30.15 in 10.0 mi West 8.1 mph - N/A   Clear
2:16 AM 15.8 °F 6.1 °F 8.6 °F 73% 30.15 in 10.0 mi West 6.9 mph - N/A   Clear
2:37 AM 15.8 °F 8.6 °F 8.6 °F 73% 30.15 in 10.0 mi West 4.6 mph - N/A   Clear
2:56 AM 14.0 °F 3.9 °F 8.6 °F 79% 30.15 in 10.0 mi West 6.9 mph - N/A   Clear
3:16 AM 14.0 °F 3.9 °F 8.6 °F 79% 30.15 in 10.0 mi West 6.9 mph - N/A   Clear
3:37 AM 12.2 °F 1.7 °F 8.6 °F 85% 30.15 in 10.0 mi West 6.9 mph - N/A   Clear
3:56 AM 12.2 °F 2.9 °F 8.6 °F 85% 30.15 in 10.0 mi West 5.8 mph - N/A   Clear
4:17 AM 12.2 °F 2.9 °F 6.8 °F 79% 30.15 in 10.0 mi West 5.8 mph - N/A   Clear
4:37 AM 12.2 °F 4.3 °F 6.8 °F 79% 30.16 in 10.0 mi West 4.6 mph - N/A   Clear
4:56 AM 12.2 °F 4.3 °F 6.8 °F 79% 30.16 in 10.0 mi West 4.6 mph - N/A   Clear
5:17 AM 12.2 °F 6.1 °F 8.6 °F 85% 30.16 in 10.0 mi West 3.5 mph - N/A   Clear
5:37 AM 10.4 °F 4.0 °F 6.8 °F 85% 30.17 in 10.0 mi West 3.5 mph - N/A   Clear
5:56 AM 8.6 °F 0.1 °F 6.8 °F 92% 30.17 in 10.0 mi West 4.6 mph - N/A   Clear
6:17 AM 10.4 °F 2.2 °F 6.8 °F 85% 30.17 in 10.0 mi West 4.6 mph - N/A   Clear
6:37 AM 10.4 °F 4.0 °F 6.8 °F 85% 30.17 in 10.0 mi West 3.5 mph - N/A   Clear
6:56 AM 8.6 °F 2.0 °F 6.8 °F 92% 30.18 in 10.0 mi West 3.5 mph - N/A   Clear
7:17 AM 10.4 °F 2.2 °F 6.8 °F 85% 30.19 in 10.0 mi WNW 4.6 mph - N/A   Clear
7:37 AM 10.4 °F 2.2 °F 8.6 °F 92% 30.20 in 10.0 mi West 4.6 mph - N/A   Clear
7:56 AM 12.2 °F 4.3 °F 8.6 °F 85% 30.20 in 10.0 mi West 4.6 mph - N/A   Clear
8:17 AM 12.2 °F 2.9 °F 8.6 °F 85% 30.21 in 10.0 mi WNW 5.8 mph - N/A   Clear
8:37 AM 14.0 °F 6.5 °F 8.6 °F 79% 30.21 in 10.0 mi WNW 4.6 mph - N/A   Clear
8:56 AM 15.8 °F 7.2 °F 8.6 °F 73% 30.22 in 10.0 mi WNW 5.8 mph - N/A   Clear
9:36 AM 17.6 °F 9.3 °F 8.6 °F 68% 30.22 in 10.0 mi West 5.8 mph - N/A   Clear
9:56 AM 19.4 °F 14.3 °F 8.6 °F 63% 30.23 in 10.0 mi West 3.5 mph - N/A   Clear
10:16 AM 21.2 °F 13.6 °F 8.6 °F 58% 30.23 in 10.0 mi West 5.8 mph - N/A   Clear
10:36 AM 23.0 °F 17.0 °F 8.6 °F 54% 30.23 in 10.0 mi WNW 4.6 mph - N/A   Clear
10:57 AM 24.8 °F 20.5 °F 8.6 °F 50% 30.23 in 10.0 mi NNW 3.5 mph - N/A   Clear
11:16 AM 24.8 °F 15.3 °F 8.6 °F 50% 30.24 in 10.0 mi WNW 9.2 mph 17.3 mph N/A   Clear
11:36 AM 26.6 °F 16.2 °F 6.8 °F 43% 30.24 in 10.0 mi WNW 11.5 mph 19.6 mph N/A   Clear
11:57 AM 26.6 °F 18.2 °F 6.8 °F 43% 30.25 in 10.0 mi North 8.1 mph - N/A   Clear
12:16 PM 28.4 °F 19.7 °F 6.8 °F 40% 30.24 in 10.0 mi NW 9.2 mph - N/A   Clear
12:36 PM 28.4 °F 17.5 °F 6.8 °F 40% 30.25 in 10.0 mi WNW 13.8 mph 18.4 mph N/A   Clear
12:57 PM 28.4 °F 19.7 °F 6.8 °F 40% 30.24 in 10.0 mi NW 9.2 mph - N/A   Clear
1:16 PM 28.4 °F 20.4 °F 3.2 °F 34% 30.24 in 10.0 mi NW 8.1 mph 17.3 mph N/A   Clear
1:36 PM 30.2 °F 20.8 °F 5.0 °F 34% 30.24 in 10.0 mi WNW 11.5 mph 17.3 mph N/A   Clear
1:57 PM 30.2 °F 21.3 °F 3.2 °F 32% 30.25 in 10.0 mi WNW 10.4 mph 18.4 mph N/A   Clear
2:16 PM 30.2 °F 21.3 °F 1.4 °F 29% 30.25 in 10.0 mi NNW 10.4 mph - N/A   Clear
2:37 PM 30.2 °F 21.3 °F 1.4 °F 29% 30.25 in 10.0 mi WNW 10.4 mph 18.4 mph N/A   Clear
2:57 PM 30.2 °F 22.6 °F -0.4 °F 27% 30.25 in 10.0 mi NW 8.1 mph 18.4 mph N/A   Clear
3:16 PM 30.2 °F 19.3 °F -0.4 °F 27% 30.25 in 10.0 mi WNW 15.0 mph - N/A   Clear
3:37 PM 30.2 °F 23.4 °F -0.4 °F 27% 30.25 in 10.0 mi NW 6.9 mph - N/A   Clear
3:57 PM 30.2 °F 21.9 °F -0.4 °F 27% 30.25 in 10.0 mi NNW 9.2 mph 19.6 mph N/A   Clear
4:16 PM 30.2 °F 20.8 °F -0.4 °F 27% 30.25 in 10.0 mi NNW 11.5 mph 16.1 mph N/A   Clear
4:37 PM 32.0 °F 24.8 °F -0.4 °F 25% 30.26 in 10.0 mi NW 8.1 mph - N/A   Clear
4:50 PM 32.0 °F 24.2 °F 1.4 °F 27% 30.25 in 10.0 mi NW 9.2 mph - N/A   Clear
5:22 PM 32.0 °F 25.6 °F 1.4 °F 27% 30.26 in 10.0 mi NW 6.9 mph - N/A   Clear
5:36 PM 32.0 °F 26.4 °F 1.4 °F 27% 30.26 in 10.0 mi NW 5.8 mph - N/A   Clear
5:57 PM 30.2 °F 24.3 °F 1.4 °F 29% 30.27 in 10.0 mi NW 5.8 mph - N/A   Clear
6:16 PM 30.2 °F 22.6 °F 1.4 °F 29% 30.27 in 10.0 mi NNW 8.1 mph - N/A   Clear
6:36 PM 30.2 °F 25.4 °F 1.4 °F 29% 30.28 in 10.0 mi NNW 4.6 mph - N/A   Clear
6:57 PM 28.4 °F 23.3 °F 1.4 °F 31% 30.28 in 10.0 mi North 4.6 mph - N/A   Clear
7:16 PM 28.4 °F 24.6 °F 1.4 °F 31% 30.28 in 10.0 mi North 3.5 mph - N/A   Clear
7:37 PM 26.6 °F 20.0 °F 1.4 °F 34% 30.28 in 10.0 mi North 5.8 mph - N/A   Clear
7:57 PM 26.6 °F - 1.4 °F 34% 30.28 in 10.0 mi Calm Calm - N/A   Clear
8:16 PM 26.6 °F - -0.4 °F 31% 30.28 in 10.0 mi Calm Calm - N/A   Clear
8:37 PM 24.8 °F - -0.4 °F 34% 30.29 in 10.0 mi Calm Calm - N/A   Clear
8:56 PM 24.8 °F - -0.4 °F 34% 30.29 in 10.0 mi Calm Calm - N/A   Clear
9:16 PM 23.0 °F - -0.4 °F 36% 30.29 in 10.0 mi Calm Calm - N/A   Clear
9:37 PM 19.4 °F - 6.8 °F 58% 30.30 in 10.0 mi Calm Calm - N/A   Clear
9:56 PM 17.6 °F - 5.0 °F 58% 30.31 in 10.0 mi Calm Calm - N/A   Clear
10:16 PM 17.6 °F - 5.0 °F 58% 30.31 in 10.0 mi Calm Calm - N/A   Clear
10:37 PM 15.8 °F - 3.2 °F 58% 30.31 in 10.0 mi Calm Calm - N/A   Clear
10:56 PM 15.8 °F - 6.8 °F 68% 30.31 in 10.0 mi Calm Calm - N/A   Clear
11:16 PM 12.2 °F - 6.8 °F 79% 30.32 in 10.0 mi Calm Calm - N/A   Clear
11:37 PM 12.2 °F - 6.8 °F 79% 30.32 in 10.0 mi Calm Calm - N/A   Clear
11:56 PM 10.4 °F - 5.0 °F 79% 30.32 in 10.0 mi Calm Calm - N/A   Clear